Regional Weather Roundup
Issued by NWS

Home | Current Version | Previous Version | Graphics & Text | Print | Product List | Glossary On
Versions: 1 2 3 4 5 6 7 8 9 10 11 12 13 14 15 16 17 18 19 20 21 22 23 24 25 26 27 28 29 30 31 32 33 34 35 36 37 38 39 40 41 42 43 44 45 46 47 48 49 50
000
ASUS43 KIND 022109
RWRIN

WEATHER ROUNDUP FOR INDIANA
NATIONAL WEATHER SERVICE INDIANAPOLIS IN
500 PM EDT WED SEP 02 2015

NOTE: "FAIR" INDICATES FEW OR NO CLOUDS BELOW 12,000 FEET WITH NO
SIGNIFICANT WEATHER AND/OR OBSTRUCTIONS TO VISIBILITY.

* - STATION DOES NOT REPORT WEATHER SUCH AS PRECIPITATION OR FOG.

+ - STATION NOT QUALITY CONTROLLED BY THE NATIONAL WEATHER SERVICE.
    USE DATA WITH CAUTION...ESPECIALLY DEWPOINT AND RELATIVE
    HUMIDITY OBSERVATIONS.

INZ001>003-010>013-019-020-022200-
NORTHWEST INDIANA

CITY           SKY/WX    TMP DP  RH WIND       PRES   REMARKS
GARY /AIRPORT/ PTSUNNY   91  64  40 W15       29.99F
KNOX *+        FAIR      88  66  48 SW7       29.99F
LA PORTE +     FAIR      90  69  50 W9        30.01F HX  95
MICHIGAN CITY+ PTSUNNY   88  64  45 SW9       30.00F
MONTICELLO +   FAIR      89  71  55 SW10G17   30.00F
RENSSELAER +   FAIR      88  70  55 SW10      30.00F
VALPARAISO     FAIR      89  69  51 W10       30.00F

$$

LMZ046-743>745-022200-
SOUTHERN LAKE MICHIGAN

STATION/POSITION TIME  TEMP    WIND        PRES    WAVE
                       AIR SEA DIR/SP/G            HT
                 (UTC) (F)     (DEG/KT/KT) (MB)    (FT)
BURNS HARBOR     2000   87     210/ 10/ 17 1016.3F
MICHIGAN CITY    2000   84     340/  4/  5   N/A
5NW MICH CITY    2100   84 78  120/  2/  2   N/A     0

$$

INZ004-005-014>016-021>024-022200-
NORTH CENTRAL INDIANA

CITY           SKY/WX    TMP DP  RH WIND       PRES   REMARKS
ELKHART        PTSUNNY   84  73  70 CALM      30.01F
GOSHEN         FAIR      88  70  55 W12       30.00F
LOGANSPORT +   FAIR      86  61  42 W9        30.02F
PERU/GRISSOM   FAIR      90  69  49 W8        30.00F
ROCHESTER +    FAIR      91  64  40 W9        30.01F
SOUTH BEND     FAIR      89  67  47 W13       30.00F
WARSAW +       FAIR      88  68  51 W12G17    30.01F

$$

INZ006>009-017-018-025>027-022200-
NORTHEAST INDIANA

CITY           SKY/WX    TMP DP  RH WIND       PRES   REMARKS
ANGOLA *+      MOSUNNY   90  72  55 W9        30.01S HX  96
AUBURN +       FAIR      88  64  45 W8        30.02S
FORT WAYNE     FAIR      88  68  51 W14       30.01F
HUNTINGTON +   FAIR      89  62  39 W9G16     30.00F

$$

INZ028-029-035-036-043>045-051>053-022200-
WEST CENTRAL INDIANA

CITY           SKY/WX    TMP DP  RH WIND       PRES   REMARKS
GREENCASTLE +  FAIR      88  63  42 CALM      30.05F
LAFAYETTE      PTSUNNY   90  66  45 SW8       30.00F
TERRE HAUTE    FAIR      89  67  47 SW6       30.03F

$$

INZ030>032-037>040-046>048-054>057-064-065-022200-
CENTRAL INDIANA

CITY           SKY/WX    TMP DP  RH WIND       PRES   REMARKS
COLUMBUS       MOSUNNY   84  64  51 W9        30.04F
FISHERS *+     PTSUNNY   84  72  65 W9        30.03F
FRANKFORT +    FAIR      89  69  51 SW6       30.05F
GREENWOOD *+   FAIR      88  64  45 SW8       30.05F
INDIANAPOLIS   FAIR      89  66  46 W10       30.03F
-EAGLE CREEK   FAIR      88  66  48 VRB6      30.03F
KOKOMO *+      FAIR      90  68  48 W13       30.02F
MARION +       FAIR      88  55  31 W10       30.02F
MT COMFORT *+  FAIR      90  55  31 SW13      30.04F
SHELBYVILLE    FAIR      90  67  46 SW10      30.03F
ZIONSVILLE +   FAIR      88  65  46 W9        30.04F

$$

INZ033-034-041-042-049-050-058-059-022200-
EAST CENTRAL INDIANA

CITY           SKY/WX    TMP DP  RH WIND       PRES   REMARKS
MUNCIE         FAIR      86  68  54 W12       30.03F

$$

INZ060-061-067>069-081>083-085>088-022200-
SOUTHWEST INDIANA

CITY           SKY/WX    TMP DP  RH WIND       PRES   REMARKS
EVANSVILLE     FAIR      92  63  38 NW3       30.04F
HUNTINGBURG *+ FAIR      90  66  45 W3        30.04F
WASHINGTON +   FAIR      90  59  34 S5        30.02F

$$

INZ062-063-066-070>080-084-089>092-022200-
SOUTH CENTRAL AND SOUTHEAST INDIANA

CITY           SKY/WX    TMP DP  RH WIND       PRES   REMARKS
BLOOMINGTON    FAIR      88  68  51 CALM      30.05F
NORTH VERNON + FAIR      90  63  40 W8        30.05F
SEYMOUR +      FAIR      93  66  40 CALM      30.03F HX  96

$$



USA.gov is the U.S. government's official web portal to all federal, state and local government web resources and services.